Total_Precipitation_Accumulation
1.00 0.86 0.87 1.11 1.43 1.92 3.29 3.19 3.74 3.73 3.42 3.45 3.67 2.63 2.06 2.40 1.31 0.82 0.57 0.58 0.52 0.42 0.31 0.20 0.24 0.24 0.21 0.17 0.16 0.19 0.19 0.17 0.22 0.30 0.19 0.06 0.03 0.03 0.04 0.09 0.08 0.05 0.04
0.68 0.55 0.66 1.07 1.29 1.48 2.74 3.57 3.56 3.66 3.32 3.17 3.85 3.34 2.76 2.69 2.62 1.80 1.09 1.08 1.08 1.03 0.76 0.50 0.43 0.48 0.43 0.38 0.33 0.28 0.29 0.44 0.67 0.65 0.42 0.17 0.05 0.02 0.04 0.05 0.03 0.04 0.03
0.40 0.44 0.46 0.65 1.64 1.71 1.83 2.96 3.82 4.02 3.65 3.79 4.46 4.84 4.21 3.83 3.10 2.13 1.63 1.30 1.32 1.63 1.53 1.18 0.86 0.85 0.68 0.66 0.57 0.57 0.78 0.97 0.70 0.64 0.61 0.33 0.12 0.04 0.02 0.03 0.04 0.02 0.01
0.62 0.58 0.41 0.43 0.69 1.27 1.64 2.48 3.54 4.73 4.56 4.78 5.17 4.64 3.90 3.54 3.48 2.63 2.17 1.58 1.26 1.44 1.49 1.41 1.32 1.48 1.38 1.26 1.25 1.14 1.26 1.32 1.09 0.92 0.54 0.41 0.32 0.29 0.18 0.07 0.07 0.05 0.05
1.41 1.17 0.48 0.53 0.75 0.91 1.22 2.03 3.20 4.21 5.77 5.57 5.12 4.83 4.38 3.62 3.70 2.87 2.05 1.13 1.19 1.05 1.15 1.37 1.57 1.61 1.79 1.81 1.69 1.53 1.60 1.80 1.61 1.26 0.87 0.73 0.61 0.51 0.45 0.25 0.16 0.13 0.09
1.81 1.64 1.64 1.06 0.99 1.22 1.23 1.60 3.14 3.44 4.53 5.76 5.65 4.12 4.31 4.55 4.55 3.82 2.61 1.74 1.43 1.59 1.38 1.44 1.66 1.79 1.62 1.68 2.02 2.22 1.99 1.55 1.41 1.42 1.06 0.85 0.83 0.67 0.56 0.43 0.26 0.24 0.18
2.10 2.15 2.24 2.10 2.09 2.06 1.76 1.63 2.18 3.60 2.94 4.77 4.72 4.27 3.00 3.37 3.88 4.56 3.20 2.02 1.68 1.50 1.55 1.61 1.34 1.52 1.61 1.54 1.54 1.50 1.57 1.72 1.65 1.50 1.21 1.00 0.94 0.90 0.82 0.72 0.55 0.46 0.34
2.11 1.55 1.90 2.10 1.86 1.73 1.69 0.91 1.56 2.98 3.07 2.99 4.08 3.99 3.64 2.46 3.00 3.40 3.00 2.26 1.53 1.38 1.41 1.49 1.85 1.50 1.47 1.57 1.41 1.40 1.35 1.31 1.33 1.54 1.69 1.48 1.17 1.07 1.16 1.07 1.08 0.96 0.74
1.28 1.45 1.82 1.65 1.31 0.73 1.52 1.43 1.23 1.58 2.68 2.75 3.42 4.08 4.13 2.89 2.62 2.80 2.77 1.63 1.27 1.28 1.35 1.36 1.39 1.81 1.94 1.76 2.19 2.01 1.72 1.87 1.72 1.59 1.47 1.40 1.45 1.52 1.40 1.53 1.80 2.24 2.03
0.75 0.87 0.98 1.29 1.09 0.98 1.57 2.04 1.28 1.39 1.67 2.76 2.77 3.85 4.06 3.73 3.14 2.81 2.57 2.17 1.24 0.92 1.12 1.35 1.34 1.30 1.50 1.84 1.75 2.26 2.36 1.80 1.77 1.83 1.82 1.64 1.40 1.41 1.63 1.75 1.76 1.96 2.19
0.29 0.23 0.15 0.16 0.44 0.76 1.19 1.59 1.66 1.36 1.55 1.93 2.90 3.70 5.12 3.66 4.49 3.78 2.62 2.22 1.65 0.94 0.85 0.92 1.13 1.21 1.21 1.24 1.42 1.54 1.90 2.38 2.04 1.61 1.59 1.55 1.49 1.61 1.62 1.73 2.03 2.36 2.54
0.14 0.18 0.09 0.04 0.19 0.44 0.70 1.47 2.32 1.54 2.02 2.15 2.92 3.12 3.87 4.66 4.43 5.21 4.13 2.83 2.24 1.28 1.00 0.87 0.87 1.00 0.97 1.21 1.40 1.37 1.59 1.68 1.80 1.89 1.77 1.61 1.83 2.05 1.97 2.07 2.07 2.07 2.01
0.27 0.16 0.05 0.03 0.05 0.17 0.39 0.81 1.51 1.37 1.63 1.67 2.15 2.71 2.73 3.56 4.20 5.22 5.74 4.52 3.64 2.43 1.50 1.43 1.03 0.87 0.91 0.90 0.89 0.99 1.13 1.34 1.65 1.71 1.63 1.50 1.56 1.68 1.65 1.71 1.76 1.76 1.84
0.60 0.41 0.17 0.14 0.27 0.42 0.40 0.30 0.67 1.01 1.12 1.17 1.53 2.22 2.67 2.50 3.22 3.51 4.13 3.79 3.79 3.50 2.52 1.54 1.35 1.10 0.98 1.07 1.03 0.95 0.93 1.02 1.20 1.53 1.70 1.57 1.52 1.56 1.65 1.85 1.93 2.00 2.06
0.74 0.44 0.32 0.19 0.28 0.55 0.69 0.53 0.48 0.48 0.93 0.98 0.98 1.17 2.10 1.85 2.00 2.79 2.78 3.47 2.93 3.05 2.87 2.26 1.35 1.27 1.25 1.27 1.24 1.18 1.25 1.34 1.52 1.58 1.65 1.62 1.61 1.53 1.43 1.42 1.35 1.41 1.56
1.06 0.60 0.38 0.19 0.21 0.33 0.50 0.65 0.65 0.46 0.49 0.65 0.55 0.92 1.52 1.58 1.57 1.75 2.28 2.65 3.07 3.14 3.45 3.46 2.71 1.63 1.31 1.72 1.74 1.33 1.38 1.66 1.47 1.52 1.45 1.42 1.52 1.28 1.41 1.53 1.50 1.49 1.67
1.33 0.87 0.49 0.40 0.27 0.17 0.27 0.70 0.68 0.54 0.50 0.67 0.68 0.66 1.00 1.09 1.12 1.40 1.53 2.25 2.70 2.44 2.57 3.20 3.69 3.45 2.81 2.21 1.74 1.68 1.08 1.31 1.54 1.31 1.24 1.15 1.13 1.14 0.86 0.97 1.08 1.26 1.56
1.22 0.91 0.72 0.60 0.33 0.25 0.29 0.73 0.89 0.61 0.85 0.72 0.92 1.04 0.98 0.94 0.95 1.33 1.43 1.38 1.82 2.05 2.07 2.21 2.78 2.72 2.66 2.42 1.66 1.37 1.09 1.15 1.12 0.95 0.86 0.88 0.91 0.97 0.91 0.90 1.13 1.05 0.91
1.43 1.25 1.29 0.83 0.56 0.48 0.53 0.71 0.88 0.72 0.59 0.85 1.06 0.89 0.91 0.81 0.94 1.55 1.82 1.82 2.08 2.27 2.11 1.83 1.79 1.73 1.88 1.85 1.61 1.25 0.91 0.80 0.87 0.80 0.75 0.84 1.01 1.13 1.19 1.29 1.30 1.08 1.02
1.51 1.85 1.33 0.78 0.61 0.61 0.79 0.91 0.86 0.76 0.74 0.88 0.93 1.04 1.12 1.26 1.29 1.70 2.00 1.65 1.47 1.52 1.69 1.51 1.24 1.24 1.12 1.22 1.16 1.20 0.93 0.79 0.75 0.58 0.72 0.83 0.74 1.17 1.54 1.23 1.17 1.09 0.84
1.59 1.80 1.30 0.97 0.83 1.15 1.32 1.51 1.40 1.27 1.21 1.27 1.62 1.46 1.56 1.73 1.54 1.39 1.68 1.64 1.38 1.09 1.22 1.19 1.15 0.98 0.83 0.88 0.91 0.67 0.52 0.49 0.50 0.48 0.43 0.45 0.51 0.66 0.62 0.69 0.72 0.87 0.93
1.84 2.21 1.66 1.44 1.83 2.17 1.74 1.77 2.04 2.05 1.65 1.25 1.17 1.29 1.28 1.21 1.18 1.18 1.25 1.36 1.47 1.21 1.12 0.97 1.05 0.99 0.81 0.85 0.85 0.75 0.53 0.52 0.40 0.27 0.20 0.27 0.49 0.28 0.22 0.28 0.41 0.54 0.60
1.78 2.16 2.13 1.94 1.46 1.56 1.53 1.66 1.64 1.65 1.63 1.47 1.10 0.99 1.07 1.12 1.03 1.24 1.46 1.50 1.46 1.44 1.19 0.92 0.79 0.80 0.70 0.72 0.83 0.79 0.67 0.65 0.60 0.40 0.47 0.40 0.20 0.15 0.11 0.10 0.16 0.26 0.26
1.56 2.01 1.65 1.35 1.15 1.18 1.69 1.47 1.56 1.38 1.33 1.63 1.72 1.18 1.15 1.53 1.43 1.49 1.61 1.58 1.36 1.21 1.18 0.98 0.85 0.83 0.75 0.66 0.64 0.69 0.85 0.73 0.71 0.75 0.66 0.34 0.19 0.17 0.16 0.19 0.17 0.18 0.21
1.41 1.75 1.79 1.67 1.30 1.42 1.86 1.66 1.59 1.50 1.46 1.40 1.81 1.70 1.35 1.30 1.39 1.45 1.56 1.54 1.42 1.06 0.93 0.91 0.82 0.88 0.95 0.75 0.81 0.84 0.80 0.89 0.90 0.74 0.59 0.42 0.23 0.18 0.17 0.17 0.19 0.20 0.26
1.23 1.53 1.77 1.74 1.65 1.58 1.56 1.57 1.66 1.68 1.28 1.11 1.15 1.54 1.37 1.07 1.03 1.11 1.48 1.62 1.67 1.57 1.41 1.25 1.16 1.11 1.18 1.20 1.26 1.25 1.20 1.25 1.06 0.83 0.63 0.52 0.39 0.31 0.27 0.29 0.30 0.31 0.39